This demonstration page uses our WeatherBlox Daily Observations layout. Learn more.

Hourly Observations for November 13, 2019

Temp ( °F °C ) Dew Point ( °F °C ) Humidity (%) Winds ( mph kmh ) Pressure ( in mb ) Visibility ( mi km ) Precip ( " mm )
12:15 am 00:15 Clear 31 -0.6 15 -9.3 52 52 S 8 13 29.97 1015 10 16.09344 0 0
12:35 am 00:35 Clear 31 -0.7 15 -9.2 53 53 S 12 19 29.97 1015 10 16.09344 0 0
12:55 am 00:55 Clear 30 -1 15 -9.3 54 54 S 9 15 29.94 1014 10 16.09344 0 0
1:15 am 01:15 Clear 29 -1.5 15 -9.5 55 55 S 9 15 29.94 1014 10 16.09344 0 0
1:35 am 01:35 Clear 29 -1.5 15 -9.5 55 55 SSW 9 15 29.91 1013 10 16.09344 0 0
1:55 am 01:55 Clear 29 -1.5 15 -9.5 55 55 S 6 9 29.91 1013 10 16.09344 0 0
2:15 am 02:15 Clear 28 -2 15 -9.6 56 56 S 9 15 29.91 1013 10 16.09344 0 0
2:35 am 02:35 Clear 29 -1.9 15 -9.7 56 56 S 9 15 29.91 1013 10 16.09344 0 0
2:55 am 02:55 Clear 29 -1.8 15 -9.5 56 56 S 8 13 29.88 1012 10 16.09344 0 0
3:15 am 03:15 Clear 29 -1.5 15 -9.5 55 55 S 9 15 29.88 1012 10 16.09344 0 0
3:35 am 03:35 Clear 29 -1.5 15 -9.6 54 54 SSW 9 15 29.88 1012 10 16.09344 0 0
3:55 am 03:55 Clear 29 -1.6 15 -9.5 55 55 SSW 8 13 29.88 1012 10 16.09344 0 0
4:15 am 04:15 Clear 29 -1.5 15 -9.2 56 56 SW 5 7 29.88 1012 10 16.09344 0 0
4:35 am 04:35 Clear 30 -1 16 -9 55 55 SSW 6 9 29.88 1012 10 16.09344 0 0
4:55 am 04:55 Clear 30 -1 15 -9.2 54 54 SSW 7 11 29.88 1012 10 16.09344 0 0
5:15 am 05:15 Clear 30 -1 16 -9 55 55 SSW 3 6 29.88 1012 10 16.09344 0 0
5:35 am 05:35 Clear 30 -1.2 16 -8.9 56 56 Calm 29.88 1012 10 16.09344 0 0
5:55 am 05:55 Clear 29 -1.5 17 -8.5 59 59 SW 5 7 29.88 1012 10 16.09344 0 0
6:15 am 06:15 Clear 28 -2 16 -9 59 59 WSW 6 9 29.91 1013 10 16.09344 0 0
6:35 am 06:35 Clear 29 -1.9 16 -9 59 59 SW 3 6 29.91 1013 10 16.09344 0 0
6:55 am 06:55 Clear 28 -2 16 -8.7 61 61 Calm 29.88 1012 10 16.09344 0 0
7:15 am 07:15 Clear 27 -3 17 -8.3 67 67 Calm 29.94 1014 10 16.09344 0 0
7:35 am 07:35 Sunny 28 -2.4 17 -8.3 64 64 N 5 7 29.94 1014 10 16.09344 0 0
7:55 am 07:55 Sunny 27 -2.8 17 -8.2 67 67 Calm 29.97 1015 10 16.09344 0 0
8:15 am 08:15 Sunny 29 -1.8 18 -7.7 64 64 NNW 5 7 29.94 1014 10 16.09344 0 0
8:35 am 08:35 Sunny 29 -1.5 20 -6.6 69 69 NNW 5 7 29.97 1015 10 16.09344 0 0
8:55 am 08:55 Sunny 31 -0.7 21 -5.9 68 68 Calm 29.94 1014 10 16.09344 0 0
9:15 am 09:15 Sunny 34 1.1 23 -4.8 65 65 NNW 8 13 30 1016 10 16.09344 0 0
9:35 am 09:35 Sunny 37 2.9 24 -4.2 60 60 N 9 15 29.97 1015 10 16.09344 0 0
9:55 am 09:55 Sunny 44 6.6 27 -3 51 51 N 17 28 29.94 1014 10 16.09344 0 0
10:15 am 10:15 Sunny 45 7.2 27 -2.9 49 49 N 16 26 29.97 1015 10 16.09344 0 0
10:35 am 10:35 Sunny 47 8.1 33 0.3 58 58 NNE 21 33 29.97 1015 10 16.09344 0 0
10:55 am 10:55 Partly Cloudy 49 9.6 36 2.1 60 60 N 20 31 29.94 1014 10 16.09344 0 0
11:15 am 11:15 Mostly Cloudy 48 9.1 36 2 61 61 NNE 17 28 29.97 1015 10 16.09344 0 0
11:35 am 11:35 Mostly Cloudy 49 9.4 36 2.4 62 62 N 15 24 29.97 1015 10 16.09344 0 0
11:55 am 11:55 Partly Cloudy 50 10 37 2.8 61 61 N 13 20 29.97 1015 10 16.09344 0 0
12:15 pm 12:15 Partly Cloudy 52 10.9 38 3.4 60 60 N 16 26 29.97 1015 10 16.09344 0 0
12:35 pm 12:35 Mostly Cloudy 51 10.8 38 3.5 61 61 N 23 37 29.97 1015 10 16.09344 0 0
12:55 pm 12:55 Mostly Cloudy 51 10.7 38 3.5 61 61 N 16 26 29.97 1015 10 16.09344 0 0
1:15 pm 13:15 Mostly Cloudy 52 10.9 38 3.2 59 59 NNW 15 24 29.97 1015 10 16.09344 0 0
1:35 pm 13:35 Mostly Cloudy 51 10.3 38 3.1 61 61 N 14 22 29.97 1015 10 16.09344 0 0
1:55 pm 13:55 Cloudy 50 10 37 2.9 62 62 N 18 30 29.97 1015 10 16.09344 0 0
2:15 pm 14:15 Cloudy 51 10.4 37 3 60 60 NNW 14 22 29.97 1015 10 16.09344 0 0
2:35 pm 14:35 Cloudy 50 10.1 37 2.6 60 60 N 17 28 29.97 1015 10 16.09344 0 0
2:55 pm 14:55 Cloudy 49 9.6 36 2.2 60 60 N 18 30 30 1016 10 16.09344 0 0
3:15 pm 15:15 Cloudy 49 9.2 36 2 61 61 NNW 14 22 30 1016 10 16.09344 0 0
3:35 pm 15:35 Cloudy 49 9.2 35 1.6 59 59 N 16 26 30 1016 10 16.09344 0 0
3:55 pm 15:55 Partly Cloudy 47 8.5 34 1.3 61 61 N 13 20 30.06 1018 10 16.09344 0 0
4:15 pm 16:15 Sunny 47 8.4 34 0.9 60 60 N 14 22 30.06 1018 10 16.09344 0 0
4:35 pm 16:35 Sunny 46 7.5 33 0.7 62 62 N 12 19 30.06 1018 10 16.09344 0 0
4:55 pm 16:55 Sunny 44 6.5 33 0.3 65 65 N 12 19 30.09 1019 10 16.09344 0 0
5:15 pm 17:15 Sunny 42 5.3 32 0 69 69 N 10 17 30.12 1020 10 16.09344 0 0
5:35 pm 17:35 Mostly Cloudy 42 5.4 32 0.1 69 69 N 10 17 30.12 1020 10 16.09344 0 0
5:55 pm 17:55 Cloudy 41 5 32 0.1 71 71 N 6 9 30.15 1021 10 16.09344 0 0
6:15 pm 18:15 Mostly Cloudy 40 4.4 32 0 73 73 N 7 11 30.15 1021 10 16.09344 0 0
6:35 pm 18:35 Mostly Cloudy 38 3.6 32 0 78 78 N 7 11 30.15 1021 10 16.09344 0 0
6:55 pm 18:55 Cloudy 38 3.4 31 -0.3 77 77 N 6 9 30.18 1022 10 16.09344 0 0
7:15 pm 19:15 Cloudy 38 3.5 32 -0.1 78 78 N 5 7 30.18 1022 10 16.09344 0 0
7:35 pm 19:35 Mostly Cloudy 37 3 31 -0.3 79 79 NNW 5 7 30.18 1022 10 16.09344 0 0
7:55 pm 19:55 Cloudy 38 3.4 32 0 79 79 N 6 9 30.18 1022 10 16.09344 0 0
8:15 pm 20:15 Mostly Cloudy 40 4.3 32 0 74 74 N 7 11 30.15 1021 10 16.09344 0 0
8:35 pm 20:35 Partly Cloudy 36 2.4 31 -0.8 80 80 N 3 6 30.21 1023 10 16.09344 0 0
8:55 pm 20:55 Mostly Cloudy 37 2.9 32 -0.2 80 80 Calm 30.21 1023 10 16.09344 0 0
9:15 pm 21:15 Mostly Cloudy 36 2 31 -0.5 84 84 Calm 30.21 1023 10 16.09344 0 0
9:35 pm 21:35 Cloudy 36 2 31 -0.5 84 84 WNW 3 6 30.21 1023 10 16.09344 0 0
9:55 pm 21:55 Cloudy 36 2 31 -0.5 84 84 NW 3 6 30.21 1023 10 16.09344 0 0
10:15 pm 22:15 Cloudy 35 1.5 31 -0.6 86 86 WNW 5 7 30.21 1023 10 16.09344 0 0
10:35 pm 22:35 Partly Cloudy 33 0.8 30 -1.2 87 87 WNW 5 7 30.21 1023 10 16.09344 0 0
10:55 pm 22:55 Clear 32 0 29 -1.6 89 89 NW 6 9 30.24 1024 10 16.09344 0 0
11:15 pm 23:15 Clear 31 -0.4 28 -2 89 89 NW 5 7 30.24 1024 10 16.09344 0 0
11:35 pm 23:35 Mostly Cloudy 31 -0.5 29 -1.7 92 92 NW 6 9 30.27 1025 10 16.09344 0 0
11:55 pm 23:55 Mostly Cloudy 31 -0.4 29 -1.6 92 92 WNW 6 9 30.27 1025 10 16.09344 0 0

Powered by AerisWeather